Retour au catalogue

FREGAT DEB

LostUNKNOWN
NORAD 45826·DEBRIS·🇷🇺 Russia

Lancé Jul 18, 2011 depuis Baikonur Cosmodrome

Loading…

Prochains Passages (prochaines 24 heures)

TLE

PériméSource: Space-Track

Époque: Apr 21, 2022, 03:13 UTC

1 45826U 11037BL  22111.13445637  .00357109  00000-0  19276+0 0  9996
2 45826  51.7925 144.7985 1913120 299.3250  42.9760 10.99314909 68682

Suivez FREGAT DEB en temps réel avec AllMySat

Download on the App Store